CW2303 Weather Reports


Display with metric or nautical units.
time (UTC)temp
F
wind
direction
speed
MPH
gust
MPH
rain 1hr
in
rain 24hr
in
rain mn
in
humidity
%
barometer
mb
20240621052545 74 138 2.0 7.0 0.00 0.00 0.00 81 1024.3
20240621052045 74 139 2.0 7.0 0.00 0.00 0.00 81 1024.4
20240621051548 74 123 2.0 5.0 0.00 0.00 0.00 81 1024.5
20240621051047 74 117 2.0 8.0 0.00 0.00 0.00 81 1024.5
20240621050545 74 114 2.0 8.0 0.00 0.00 0.00 81 1024.5
20240621050053 74 221 3.0 8.0 0.00 0.00 0.00 80 1024.5
20240621045548 74 124 2.0 7.0 0.00 0.00 0.00 80 1024.5
20240621045044 74 124 3.0 7.0 0.00 0.00 0.00 80 1024.6
20240621044555 74 115 2.0 8.0 0.00 0.00 0.00 81 1024.5
20240621044046 74 126 2.0 8.0 0.00 0.00 0.00 80 1024.5
20240621043545 74 140 3.0 8.0 0.00 0.00 0.00 80 1024.4
20240621043049 74 115 2.0 7.0 0.00 0.00 0.00 81 1024.4
20240621042544 74 134 2.0 4.0 0.00 0.00 0.00 81 1024.4
20240621042044 74 111 0.0 4.0 0.00 0.00 0.00 81 1024.4
20240621041551 74 126 1.0 3.0 0.00 0.00 0.00 81 1024.4
20240621041044 74 146 0.0 2.0 0.00 0.00 0.00 81 1024.4
20240621040548 74 122 1.0 2.0 0.00 0.00 0.00 80 1024.2
20240621040104 74 126 1.0 2.0 0.00 0.00 0.00 80 1024.2
20240621035545 74 123 1.0 4.0 0.00 0.00 0.00 80 1024.1
20240621035046 74 125 1.0 4.0 0.00 0.00 0.00 80 1024.2
20240621034548 74 128 1.0 4.0 0.00 0.00 0.00 80 1024.3
20240621034046 74 136 1.0 3.0 0.00 0.00 0.00 80 1024.2
20240621033545 74 123 1.0 3.0 0.00 0.00 0.00 80 1024.2
20240621033047 74 129 1.0 3.0 0.00 0.00 0.00 80 1024.2
20240621032544 74 117 1.0 2.0 0.00 0.00 0.00 79 1024.2
20240621032045 74 133 1.0 3.0 0.00 0.00 0.00 80 1024.1
20240621031551 74 123 1.0 3.0 0.00 0.00 0.00 80 1024.1
20240621031045 75 117 1.0 2.0 0.00 0.00 0.00 80 1024.2
20240621030544 75 131 1.0 2.0 0.00 0.00 0.00 80 1024.2
20240621030049 75 122 0.0 2.0 0.00 0.00 0.00 79 1024.1
20240621025546 75 123 1.0 3.0 0.00 0.00 0.00 79 1024.0
20240621025044 75 120 1.0 3.0 0.00 0.00 0.00 79 1024.1
20240621024557 75 113 1.0 2.0 0.00 0.00 0.00 78 1024.0
20240621024046 75 139 0.0 1.0 0.00 0.00 0.00 78 1023.9
20240621023544 75 119 0.0 2.0 0.00 0.00 0.00 78 1024.0
20240621023058 76 123 0.0 2.0 0.00 0.00 0.00 77 1023.9
20240621022546 76 122 0.0 2.0 0.00 0.00 0.00 77 1023.9
20240621022043 76 119 0.0 2.0 0.00 0.00 0.00 76 1023.9
20240621021555 76 111 0.0 2.0 0.00 0.00 0.00 76 1023.9
20240621021044 76 109 0.0 3.0 0.00 0.00 0.00 76 1023.8
20240621020543 76 109 0.0 3.0 0.00 0.00 0.00 75 1023.9
20240621020056 76 126 1.0 6.0 0.00 0.00 0.00 75 1023.8
20240621015544 76 119 1.0 6.0 0.00 0.00 0.00 75 1023.8
20240621015043 77 126 1.0 3.0 0.00 0.00 0.00 75 1023.8
20240621014547 77 113 1.0 2.0 0.00 0.00 0.00 75 1023.9
20240621014043 77 158 0.0 1.0 0.00 0.00 0.00 74 1023.9
20240621013543 77 122 0.0 2.0 0.00 0.00 0.00 74 1023.9
20240621013047 77 126 1.0 2.0 0.00 0.00 0.00 74 1023.8
20240621012544 78 109 0.0 1.0 0.00 0.00 0.00 75 1023.8
20240621012044 78 0 0.0 1.0 0.00 0.00 0.00 74 1023.8
20240621011556 78 123 0.0 1.0 0.00 0.00 0.00 73 1023.8
20240621011044 79 123 0.0 1.0 0.00 0.00 0.00 72 1023.7
20240621010545 79 0 1.0 4.0 0.00 0.00 0.00 71 1023.8
20240621010055 80 130 1.0 6.0 0.00 0.00 0.00 70 1023.8
20240621005544 80 130 2.0 6.0 0.00 0.00 0.00 69 1023.9
20240621005045 80 155 1.0 5.0 0.00 0.00 0.00 69 1023.9
20240621004558 81 116 1.0 5.0 0.00 0.00 0.00 69 1023.9
20240621004043 81 137 1.0 5.0 0.00 0.00 0.00 68 1023.9
20240621003544 81 132 1.0 5.0 0.00 0.00 0.00 68 1023.9
20240621003054 81 139 1.0 5.0 0.00 0.00 0.00 66 1023.8
20240621002543 81 118 0.0 4.0 0.00 0.00 0.00 68 1023.9
20240621002044 82 146 1.0 6.0 0.00 0.00 0.00 66 1023.7
20240621001557 82 128 1.0 6.0 0.00 0.00 0.00 67 1023.7
20240621001044 82 119 1.0 5.0 0.00 0.00 0.00 66 1023.7
20240621000545 82 123 0.0 5.0 0.00 0.00 0.00 66 1023.6
20240621000053 82 128 0.0 2.0 0.00 0.00 0.00 66 1023.7
20240620235545 82 107 0.0 1.0 0.00 0.00 0.00 66 1023.7
20240620235044 82 99 0.0 2.0 0.00 0.00 0.00 64 1023.8
20240620234556 83 99 0.0 4.0 0.00 0.00 0.00 63 1023.8
20240620234044 83 119 1.0 5.0 0.00 0.00 0.00 64 1023.8
20240620233544 83 117 1.0 5.0 0.00 0.00 0.00 64 1023.8
20240620233052 83 121 2.0 5.0 0.00 0.00 0.00 65 1023.9
20240620232545 84 133 1.0 5.0 0.00 0.00 0.00 64 1023.8
20240620232045 84 159 2.0 4.0 0.00 0.00 0.00 62 1023.9
20240620231556 84 138 0.0 3.0 0.00 0.00 0.00 62 1023.9
20240620231045 84 0 0.0 3.0 0.00 0.00 0.00 59 1023.9
20240620230545 84 115 1.0 5.0 0.00 0.00 0.00 60 1024.0
20240620230054 85 146 1.0 5.0 0.00 0.00 0.00 60 1024.1
20240620225545 85 96 1.0 4.0 0.00 0.00 0.00 61 1024.1
20240620225044 84 144 0.0 3.0 0.00 0.00 0.00 61 1024.2
20240620224550 84 150 1.0 7.0 0.00 0.00 0.00 64 1024.2
20240620224045 84 135 0.0 7.0 0.00 0.00 0.00 61 1024.2
20240620223545 85 126 2.0 7.0 0.00 0.00 0.00 60 1024.2
20240620223051 86 132 2.0 5.0 0.00 0.00 0.00 57 1024.3
20240620222546 86 145 1.0 4.0 0.00 0.00 0.00 59 1024.4
20240620222045 86 119 2.0 4.0 0.00 0.00 0.00 59 1024.6
20240620221558 85 128 1.0 3.0 0.00 0.00 0.00 61 1024.6
20240620221045 84 123 0.0 3.0 0.00 0.00 0.00 61 1024.5
20240620220545 85 128 0.0 3.0 0.00 0.00 0.00 61 1024.7
20240620220107 85 133 1.0 4.0 0.00 0.00 0.00 58 1024.6
20240620215545 87 124 2.0 5.0 0.00 0.00 0.00 56 1024.7
20240620215044 87 109 1.0 5.0 0.00 0.00 0.00 56 1024.7
20240620214549 87 149 1.0 5.0 0.00 0.00 0.00 58 1024.7
20240620214045 88 127 1.0 4.0 0.00 0.00 0.00 55 1024.8
20240620213541 87 156 1.0 3.0 0.00 0.00 0.00 55 1024.8
20240620213054 87 177 1.0 3.0 0.00 0.00 0.00 54 1024.9
20240620212543 86 234 0.0 3.0 0.00 0.00 0.00 54 1025.0
20240620212045 86 184 1.0 5.0 0.00 0.00 0.00 54 1025.0
20240620211551 86 142 1.0 5.0 0.00 0.00 0.00 52 1025.0
20240620211043 87 196 2.0 7.0 0.00 0.00 0.00 55 1025.0
20240620210543 87 196 1.0 7.0 0.00 0.00 0.00 55 1025.0
20240620210047 87 144 2.0 6.0 0.00 0.00 0.00 53 1025.1
20240620205542 87 127 1.0 4.0 0.00 0.00 0.00 54 1025.2
20240620205043 86 82 1.0 3.0 0.00 0.00 0.00 56 1025.2
20240620204549 85 146 1.0 3.0 0.00 0.00 0.00 55 1025.3
20240620204043 86 136 0.0 4.0 0.00 0.00 0.00 58 1025.4
20240620203546 86 137 0.0 4.0 0.00 0.00 0.00 56 1025.5
20240620203048 86 144 1.0 6.0 0.00 0.00 0.00 55 1025.6
20240620202544 86 0 1.0 8.0 0.00 0.00 0.00 56 1025.6
20240620202042 86 129 2.0 8.0 0.00 0.00 0.00 55 1025.6
20240620201554 86 137 2.0 6.0 0.00 0.00 0.00 55 1025.6
20240620201044 85 158 2.0 7.0 0.00 0.00 0.00 58 1025.7
20240620200542 86 128 3.0 7.0 0.00 0.00 0.00 55 1025.8
20240620200050 86 146 2.0 6.0 0.00 0.00 0.00 56 1025.7
20240620195543 86 140 1.0 6.0 0.00 0.00 0.00 59 1025.8
20240620195043 85 150 1.0 6.0 0.00 0.00 0.00 58 1025.8
20240620194550 86 142 2.0 5.0 0.00 0.00 0.00 56 1025.9
20240620194046 86 164 1.0 5.0 0.00 0.00 0.00 57 1025.9
20240620193543 86 144 2.0 5.0 0.00 0.00 0.00 56 1025.9
20240620193104 86 205 2.0 5.0 0.00 0.00 0.00 53 1025.9
20240620192543 85 142 1.0 2.0 0.00 0.00 0.00 64 1025.9
20240620192044 85 123 0.0 7.0 0.00 0.00 0.00 57 1026.0
20240620191549 85 135 2.0 7.0 0.00 0.00 0.00 61 1026.0
20240620191043 85 138 2.0 5.0 0.00 0.00 0.00 60 1026.0
20240620190545 85 105 2.0 6.0 0.00 0.00 0.00 61 1026.0
20240620190106 85 116 2.0 6.0 0.00 0.00 0.00 59 1026.1
20240620185546 84 160 2.0 5.0 0.00 0.00 0.00 61 1026.0
20240620185042 83 121 1.0 6.0 0.00 0.00 0.00 62 1026.1
20240620184547 84 148 1.0 6.0 0.00 0.00 0.00 62 1026.1
20240620184042 84 126 0.0 5.0 0.00 0.00 0.00 62 1026.2
20240620183546 84 133 1.0 8.0 0.00 0.00 0.00 65 1026.2
20240620183113 84 110 1.0 8.0 0.00 0.00 0.00 62 1026.2
20240620182549 85 0 3.0 8.0 0.00 0.00 0.00 58 1026.2
20240620182045 85 151 2.0 4.0 0.00 0.00 0.00 59 1026.2
20240620181555 84 130 1.0 5.0 0.00 0.00 0.00 58 1026.3
20240620181049 85 156 1.0 5.0 0.00 0.00 0.00 56 1026.3
20240620180545 85 124 1.0 7.0 0.00 0.00 0.00 62 1026.3
20240620180058 84 119 2.0 8.0 0.00 0.00 0.00 60 1026.5
20240620175545 85 207 3.0 8.0 0.00 0.00 0.00 61 1026.5
20240620175045 84 180 2.0 4.0 0.00 0.00 0.00 58 1026.5
20240620174549 84 95 0.0 5.0 0.00 0.00 0.00 61 1026.6
20240620174045 84 121 2.0 5.0 0.00 0.00 0.00 60 1026.6
20240620173545 85 181 1.0 5.0 0.00 0.00 0.00 62 1026.6
20240620173049 84 145 3.0 5.0 0.00 0.00 0.00 67 1026.6
20240620172546 83 198 1.0 3.0 0.00 0.00 0.00 65 1026.5
20240620172046 83 198 0.0 5.0 0.00 0.00 0.00 63 1026.6
20240620171553 83 129 1.0 5.0 0.00 0.00 0.00 63 1026.6
20240620171046 83 0 0.0 3.0 0.00 0.00 0.00 69 1026.7
20240620170547 82 0 0.0 1.0 0.00 0.00 0.00 68 1026.6
20240620170054 82 0 0.0 2.0 0.00 0.00 0.00 66 1026.6
20240620165546 82 148 0.0 3.0 0.00 0.00 0.00 67 1026.7
20240620165045 82 0 0.0 5.0 0.00 0.00 0.00 63 1026.7
20240620164546 82 168 1.0 5.0 0.00 0.00 0.00 66 1026.7
20240620164045 83 169 1.0 4.0 0.00 0.00 0.00 63 1026.7
20240620163544 83 154 1.0 4.0 0.00 0.00 0.00 70 1026.6
20240620163055 82 164 1.0 5.0 0.00 0.00 0.00 64 1026.7
20240620162545 83 198 2.0 5.0 0.00 0.00 0.00 64 1026.6
20240620162045 82 196 1.0 3.0 0.00 0.00 0.00 65 1026.6
20240620161555 82 166 0.0 3.0 0.00 0.00 0.00 65 1026.7
20240620161045 82 165 1.0 5.0 0.00 0.00 0.00 65 1026.7
20240620160545 82 184 1.0 5.0 0.00 0.00 0.00 69 1026.7
20240620160046 82 203 0.0 4.0 0.00 0.00 0.00 70 1026.8
20240620155544 81 161 1.0 4.0 0.00 0.00 0.00 69 1026.8
20240620155046 81 222 1.0 4.0 0.00 0.00 0.00 69 1026.8
20240620154611 80 142 1.0 3.0 0.00 0.00 0.00 72 1026.8
20240620154045 81 140 1.0 4.0 0.00 0.00 0.00 70 1026.9
20240620153544 81 241 1.0 5.0 0.00 0.00 0.00 70 1027.0
20240620153052 81 195 2.0 5.0 0.00 0.00 0.00 69 1026.9
20240620152544 81 221 2.0 5.0 0.00 0.00 0.00 73 1026.8
20240620152046 80 188 1.0 6.0 0.00 0.00 0.00 72 1027.0
20240620151557 79 219 2.0 6.0 0.00 0.00 0.00 72 1026.9
20240620151045 80 129 1.0 5.0 0.00 0.00 0.00 73 1026.8
20240620150545 80 130 2.0 5.0 0.00 0.00 0.00 72 1026.8
20240620150051 80 153 1.0 5.0 0.00 0.00 0.00 72 1026.8
20240620145544 80 134 1.0 5.0 0.00 0.00 0.00 72 1026.8
20240620145045 80 144 1.0 5.0 0.00 0.00 0.00 73 1026.9
20240620144552 80 144 2.0 7.0 0.00 0.00 0.00 75 1026.9
20240620144045 80 223 1.0 7.0 0.00 0.00 0.00 75 1026.9
20240620143544 79 145 2.0 6.0 0.00 0.00 0.00 74 1026.8
20240620143049 79 121 2.0 6.0 0.00 0.00 0.00 75 1026.8
20240620142546 79 136 1.0 5.0 0.00 0.00 0.00 78 1026.8
20240620142046 79 108 2.0 7.0 0.00 0.00 0.00 77 1026.8
20240620141608 79 161 2.0 7.0 0.00 0.00 0.00 77 1026.7
20240620141045 78 158 1.0 4.0 0.00 0.00 0.00 79 1026.8
20240620140545 78 208 1.0 4.0 0.00 0.00 0.00 81 1026.8
20240620140055 78 178 1.0 3.0 0.00 0.00 0.00 80 1026.8
20240620135545 77 123 1.0 4.0 0.00 0.00 0.00 81 1026.7
20240620135051 77 148 1.0 4.0 0.00 0.00 0.00 82 1026.7
20240620134551 76 174 1.0 5.0 0.00 0.00 0.00 84 1026.7
20240620134045 75 138 1.0 5.0 0.00 0.00 0.00 84 1026.7
20240620133545 75 118 2.0 6.0 0.00 0.00 0.00 86 1026.6
20240620133049 74 136 2.0 6.0 0.00 0.00 0.00 86 1026.6
20240620132545 74 120 0.0 4.0 0.00 0.00 0.00 87 1026.6
20240620132045 74 130 1.0 4.0 0.00 0.00 0.00 87 1026.5
20240620131602 74 134 0.0 3.0 0.00 0.00 0.00 87 1026.5
20240620131048 73 0 1.0 3.0 0.00 0.00 0.00 87 1026.4
20240620130548 73 198 1.0 4.0 0.00 0.00 0.00 87 1026.5
20240620130053 73 144 0.0 4.0 0.00 0.00 0.00 88 1026.4
20240620125545 73 217 1.0 4.0 0.00 0.00 0.00 88 1026.3
20240620125045 72 148 1.0 4.0 0.00 0.00 0.00 89 1026.3
20240620124555 72 166 1.0 4.0 0.00 0.00 0.00 88 1026.3
20240620124045 72 159 0.0 5.0 0.00 0.00 0.00 89 1026.3
20240620123545 72 145 0.0 5.0 0.00 0.00 0.00 89 1026.2
20240620123136 71 136 2.0 5.0 0.00 0.00 0.00 89 1026.2
20240620122545 71 142 0.0 3.0 0.00 0.00 0.00 91 1026.1
20240620122044 71 113 1.0 3.0 0.00 0.00 0.00 91 1026.1
20240620121557 70 136 0.0 1.0 0.00 0.00 0.00 91 1026.0
20240620121045 70 146 0.0 1.0 0.00 0.00 0.00 91 1026.0
20240620120545 70 0 0.0 1.0 0.00 0.00 0.00 91 1026.0
20240620120050 70 125 0.0 1.0 0.00 0.00 0.00 91 1025.9
20240620115545 70 0 0.0 0.0 0.00 0.00 0.00 92 1026.0
20240620115045 70 0 0.0 0.0 0.00 0.00 0.00 92 1025.9
20240620114550 69 0 0.0 0.0 0.00 0.00 0.00 92 1025.9
20240620114045 69 0 0.0 0.0 0.00 0.00 0.00 92 1025.9
20240620113544 69 154 0.0 0.0 0.00 0.00 0.00 92 1025.8
20240620113057 69 0 0.0 0.0 0.00 0.00 0.00 92 1025.7
20240620112544 69 0 0.0 0.0 0.00 0.00 0.00 92 1025.7
20240620112044 69 0 0.0 0.0 0.00 0.00 0.00 92 1025.7
20240620111554 69 0 0.0 0.0 0.00 0.00 0.00 92 1025.7
20240620111045 69 0 0.0 0.0 0.00 0.00 0.00 92 1025.7
20240620110545 69 154 0.0 0.0 0.00 0.00 0.00 92 1025.5
20240620110054 69 0 0.0 0.0 0.00 0.00 0.00 92 1025.6
20240620105544 69 0 0.0 0.0 0.00 0.00 0.00 92 1025.6
20240620105044 69 0 0.0 0.0 0.00 0.00 0.00 92 1025.6
20240620104551 69 0 0.0 0.0 0.00 0.00 0.00 91 1025.5
20240620104043 69 0 0.0 4.0 0.00 0.00 0.00 91 1025.4
20240620103544 69 135 0.0 4.0 0.00 0.00 0.00 91 1025.5
20240620103048 69 0 0.0 1.0 0.00 0.00 0.00 91 1025.5
20240620102545 69 0 0.0 2.0 0.00 0.00 0.00 91 1025.3
20240620102043 69 121 0.0 3.0 0.00 0.00 0.00 91 1025.3
20240620101605 69 111 0.0 4.0 0.00 0.00 0.00 91 1025.2
20240620101049 69 115 1.0 4.0 0.00 0.00 0.00 91 1025.1
20240620100543 69 127 1.0 4.0 0.00 0.00 0.00 91 1025.1
20240620100059 69 0 0.0 3.0 0.00 0.00 0.00 91 1025.1
20240620095552 69 128 0.0 3.0 0.00 0.00 0.00 92 1025.0
20240620095044 69 119 1.0 3.0 0.00 0.00 0.00 92 1025.0
20240620094551 69 117 0.0 3.0 0.00 0.00 0.00 92 1024.9
20240620094044 69 117 1.0 3.0 0.00 0.00 0.00 92 1024.9
20240620093544 69 116 0.0 1.0 0.00 0.00 0.00 92 1024.9
20240620093057 69 117 0.0 1.0 0.00 0.00 0.00 92 1024.9
20240620092545 69 117 0.0 1.0 0.00 0.00 0.00 92 1024.8
20240620092044 69 0 0.0 1.0 0.00 0.00 0.00 92 1024.8
20240620091551 69 117 0.0 1.0 0.00 0.00 0.00 92 1024.8
20240620091044 69 113 0.0 3.0 0.00 0.00 0.00 92 1024.8
20240620090547 69 0 1.0 3.0 0.00 0.00 0.00 92 1024.8
20240620090053 69 125 0.0 1.0 0.00 0.00 0.00 92 1024.7
20240620085547 70 123 0.0 1.0 0.00 0.00 0.00 92 1024.7
20240620085044 70 123 0.0 2.0 0.00 0.00 0.00 92 1024.7
20240620084555 70 0 0.0 2.0 0.00 0.00 0.00 92 1024.8
20240620084045 70 117 0.0 2.0 0.00 0.00 0.00 92 1024.8
20240620083545 70 124 0.0 1.0 0.00 0.00 0.00 91 1024.7
20240620083106 70 121 0.0 1.0 0.00 0.00 0.00 91 1024.8
20240620082546 70 0 0.0 2.0 0.00 0.00 0.00 91 1024.7
20240620082045 70 121 0.0 2.0 0.00 0.00 0.00 91 1024.6
20240620081550 70 126 0.0 2.0 0.00 0.00 0.00 90 1024.7
20240620081045 70 126 0.0 2.0 0.00 0.00 0.00 90 1024.6
20240620080547 70 0 0.0 2.0 0.00 0.00 0.00 90 1024.7
20240620080050 71 126 1.0 2.0 0.00 0.00 0.00 90 1024.7
20240620075545 71 0 0.0 3.0 0.00 0.00 0.00 90 1024.6
20240620075044 71 120 1.0 3.0 0.00 0.00 0.00 90 1024.7
20240620074549 71 125 0.0 3.0 0.00 0.00 0.00 89 1024.7
20240620074045 71 134 0.0 3.0 0.00 0.00 0.00 89 1024.7
20240620073545 71 0 1.0 3.0 0.00 0.00 0.00 89 1024.7
20240620073049 71 119 0.0 2.0 0.00 0.00 0.00 89 1024.6
20240620072545 71 116 1.0 2.0 0.00 0.00 0.00 89 1024.6
20240620072045 71 124 1.0 2.0 0.00 0.00 0.00 89 1024.6
20240620071551 71 119 0.0 2.0 0.00 0.00 0.00 88 1024.7
20240620071045 71 132 0.0 2.0 0.00 0.00 0.00 88 1024.7
20240620070548 71 138 1.0 2.0 0.00 0.00 0.00 88 1024.7
20240620070107 71 132 0.0 1.0 0.00 0.00 0.00 88 1024.6
20240620065545 71 124 1.0 1.0 0.00 0.00 0.00 88 1024.6
20240620065045 72 121 0.0 1.0 0.00 0.00 0.00 87 1024.6
20240620064558 72 111 0.0 2.0 0.00 0.00 0.00 87 1024.6
20240620064044 72 122 0.0 2.0 0.00 0.00 0.00 87 1024.6
20240620063545 72 123 0.0 4.0 0.00 0.00 0.00 86 1024.6
20240620063053 72 119 0.0 4.0 0.00 0.00 0.00 86 1024.6
20240620062545 72 119 0.0 4.0 0.00 0.00 0.00 86 1024.6
20240620062045 73 121 1.0 4.0 0.00 0.00 0.00 86 1024.7
20240620061609 73 121 0.0 4.0 0.00 0.00 0.00 85 1024.6
20240620061044 73 122 1.0 4.0 0.00 0.00 0.00 85 1024.6
20240620060545 73 115 1.0 4.0 0.00 0.00 0.00 85 1024.7
20240620060056 73 136 1.0 4.0 0.00 0.00 0.00 85 1024.7
20240620055545 73 108 1.0 4.0 0.00 0.00 0.00 85 1024.6
20240620055046 73 126 1.0 4.0 0.00 0.00 0.00 85 1024.7
20240620054551 73 111 1.0 2.0 0.00 0.00 0.00 85 1024.7
20240620054048 73 138 1.0 2.0 0.00 0.00 0.00 85 1024.7
20240620053545 73 122 1.0 2.0 0.00 0.00 0.00 85 1024.7
20240620053051 73 121 0.0 2.0 0.00 0.00 0.00 85 1024.6